Time,TemperatureF,DewpointF,PressureIn,WindDirection,WindDirectionDegrees,WindSpeedMPH,WindSpeedGustMPH,Humidity,HourlyPrecipIn,Conditions,Clouds,dailyrainin,SoftwareType,DateUTC
2013-09-02 00:12:00,63.0,48.0,29.78,NNE,28,2.0,8.0,58,0.00,,,0.00,,2013-09-02 06:12:00,
2013-09-02 01:11:00,61.0,48.0,29.80,NNE,28,1.0,7.0,62,0.00,,,0.00,,2013-09-02 07:11:00,
2013-09-02 01:21:00,61.0,47.0,29.80,NNE,28,0.0,2.0,60,0.00,,,0.00,,2013-09-02 07:21:00,
2013-09-02 01:52:00,60.0,46.0,29.80,NNE,28,0.0,5.0,60,0.00,,,0.00,,2013-09-02 07:52:00,
2013-09-02 02:11:00,60.0,46.0,29.80,NNE,28,0.0,4.0,59,0.00,,,0.00,,2013-09-02 08:11:00,
2013-09-02 02:22:00,59.0,46.0,29.81,NNE,28,0.0,3.0,61,0.00,,,0.00,,2013-09-02 08:22:00,
2013-09-02 02:52:00,58.0,47.0,29.81,NNE,28,0.0,0.0,66,0.00,,,0.00,,2013-09-02 08:52:00,
2013-09-02 03:22:00,57.0,46.0,29.81,NNE,28,1.0,5.0,66,0.00,,,0.00,,2013-09-02 09:22:00,
2013-09-02 03:53:00,57.0,46.0,29.81,NNE,28,2.0,6.0,67,0.00,,,0.00,,2013-09-02 09:53:00,
2013-09-02 04:22:00,56.0,44.0,29.81,NNE,28,0.0,2.0,64,0.00,,,0.00,,2013-09-02 10:22:00,
2013-09-02 04:42:00,56.0,42.0,29.80,NNE,28,0.0,2.0,59,0.00,,,0.00,,2013-09-02 10:42:00,
2013-09-02 04:53:00,56.0,44.0,29.81,NNE,28,0.0,1.0,65,0.00,,,0.00,,2013-09-02 10:53:00,
2013-09-02 05:11:00,54.0,43.0,29.82,NNE,28,3.0,6.0,67,0.00,,,0.00,,2013-09-02 11:11:00,
2013-09-02 05:22:00,55.0,45.0,29.81,NNE,28,0.0,5.0,68,0.00,,,0.00,,2013-09-02 11:22:00,
2013-09-02 05:52:00,54.0,44.0,29.82,NNE,28,1.0,5.0,69,0.00,,,0.00,,2013-09-02 11:52:00,
2013-09-02 06:12:00,54.0,45.0,29.81,NNE,28,0.0,0.0,71,0.00,,,0.00,,2013-09-02 12:12:00,
2013-09-02 06:21:00,53.0,45.0,29.81,NNE,28,0.0,0.0,73,0.00,,,0.00,,2013-09-02 12:21:00,
2013-09-02 06:52:00,53.0,44.0,29.81,NNE,28,0.0,0.0,72,0.00,,,0.00,,2013-09-02 12:52:00,
2013-09-02 07:11:00,53.0,45.0,29.81,NNE,28,0.0,4.0,73,0.00,,,0.00,,2013-09-02 13:11:00,
2013-09-02 07:21:00,52.0,44.0,29.81,NNE,28,0.0,4.0,73,0.00,,,0.00,,2013-09-02 13:21:00,
2013-09-02 07:52:00,53.0,44.0,29.81,NNE,28,0.0,5.0,72,0.00,,,0.00,,2013-09-02 13:52:00,
2013-09-02 08:11:00,53.0,43.0,29.83,NNW,346,7.0,10.0,69,0.00,,,0.00,,2013-09-02 14:11:00,
2013-09-02 08:22:00,54.0,43.0,29.82,NNW,342,4.0,8.0,66,0.00,,,0.00,,2013-09-02 14:22:00,
2013-09-02 08:52:00,57.0,45.0,29.82,NW,306,6.0,12.0,63,0.00,,,0.00,,2013-09-02 14:52:00,
2013-09-02 09:12:00,59.0,45.0,29.82,WNW,303,0.0,6.0,60,0.00,,,0.00,,2013-09-02 15:12:00,
2013-09-02 09:22:00,61.0,45.0,29.82,WNW,303,0.0,2.0,56,0.00,,,0.00,,2013-09-02 15:22:00,
2013-09-02 09:54:00,66.0,46.0,29.82,WNW,303,0.0,1.0,48,0.00,,,0.00,,2013-09-02 15:54:00,
2013-09-02 10:14:00,69.0,44.0,29.81,WNW,303,0.0,2.0,41,0.00,,,0.00,,2013-09-02 16:14:00,
2013-09-02 10:24:00,71.0,44.0,29.81,WNW,303,0.0,1.0,38,0.00,,,0.00,,2013-09-02 16:24:00,
2013-09-02 10:53:00,73.0,45.0,29.80,WNW,303,1.0,4.0,37,0.00,,,0.00,,2013-09-02 16:53:00,
2013-09-02 11:12:00,73.0,46.0,29.80,WNW,303,0.0,5.0,38,0.00,,,0.00,,2013-09-02 17:12:00,
2013-09-02 11:23:00,72.0,47.0,29.80,WNW,303,0.0,1.0,41,0.00,,,0.00,,2013-09-02 17:23:00,
2013-09-02 11:52:00,72.0,46.0,29.79,WNW,303,0.0,0.0,40,0.00,,,0.00,,2013-09-02 17:52:00,
2013-09-02 12:13:00,74.0,49.0,29.79,WNW,303,0.0,2.0,41,0.00,,,0.00,,2013-09-02 18:13:00,
2013-09-02 12:22:00,74.0,45.0,29.78,WNW,303,0.0,1.0,36,0.00,,,0.00,,2013-09-02 18:22:00,
2013-09-02 12:52:00,76.0,48.0,29.78,WNW,303,0.0,1.0,37,0.00,,,0.00,,2013-09-02 18:52:00,
2013-09-02 13:12:00,76.0,51.0,29.78,WNW,303,0.0,1.0,41,0.00,,,0.00,,2013-09-02 19:12:00,
2013-09-02 13:22:00,76.0,51.0,29.78,WNW,303,0.0,0.0,42,0.00,,,0.00,,2013-09-02 19:22:00,
2013-09-02 13:52:00,77.0,49.0,29.78,WNW,303,0.0,1.0,37,0.00,,,0.00,,2013-09-02 19:52:00,
2013-09-02 14:12:00,78.0,48.0,29.77,WNW,303,0.0,1.0,35,0.00,,,0.00,,2013-09-02 20:12:00,
2013-09-02 14:22:00,80.0,48.0,29.77,WNW,303,0.0,1.0,33,0.00,,,0.00,,2013-09-02 20:22:00,
2013-09-02 14:52:00,82.0,47.0,29.76,WNW,303,0.0,3.0,29,0.00,,,0.00,,2013-09-02 20:52:00,
2013-09-02 15:23:00,81.0,50.0,29.74,WNW,303,0.0,3.0,34,0.00,,,0.00,,2013-09-02 21:23:00,
2013-09-02 15:54:00,81.0,46.0,29.73,WNW,303,0.0,4.0,29,0.00,,,0.00,,2013-09-02 21:54:00,
2013-09-02 16:13:00,82.0,46.0,29.73,WNW,303,3.0,8.0,28,0.00,,,0.00,,2013-09-02 22:13:00,
2013-09-02 16:23:00,82.0,47.0,29.74,WNW,303,2.0,8.0,30,0.00,,,0.00,,2013-09-02 22:23:00,
2013-09-02 16:54:00,80.0,48.0,29.74,WNW,303,4.0,9.0,33,0.00,,,0.00,,2013-09-02 22:54:00,
2013-09-02 17:12:00,79.0,49.0,29.73,WNW,303,1.0,6.0,35,0.00,,,0.00,,2013-09-02 23:12:00,
2013-09-02 17:22:00,79.0,48.0,29.73,WNW,303,1.0,6.0,34,0.00,,,0.00,,2013-09-02 23:22:00,
2013-09-02 17:52:00,80.0,51.0,29.73,WNW,303,0.0,2.0,36,0.00,,,0.00,,2013-09-02 23:52:00,
2013-09-02 18:11:00,80.0,52.0,29.72,WNW,303,0.0,1.0,38,0.00,,,0.00,,2013-09-03 00:11:00,
2013-09-02 18:21:00,81.0,53.0,29.72,WNW,303,0.0,1.0,38,0.00,,,0.00,,2013-09-03 00:21:00,
2013-09-02 18:42:00,81.0,52.0,29.72,WNW,303,0.0,7.0,36,0.00,,,0.00,,2013-09-03 00:42:00,
2013-09-02 18:52:00,81.0,54.0,29.72,WNW,303,0.0,5.0,39,0.00,,,0.00,,2013-09-03 00:52:00,
2013-09-02 19:11:00,80.0,54.0,29.72,WNW,303,1.0,6.0,41,0.00,,,0.00,,2013-09-03 01:11:00,
2013-09-02 19:21:00,79.0,55.0,29.72,WNW,303,0.0,7.0,43,0.00,,,0.00,,2013-09-03 01:21:00,
2013-09-02 19:42:00,78.0,53.0,29.72,WNW,303,6.0,10.0,42,0.00,,,0.00,,2013-09-03 01:42:00,
2013-09-02 19:52:00,77.0,57.0,29.76,WSW,240,14.0,20.0,50,0.00,,,0.00,,2013-09-03 01:52:00,
2013-09-02 21:23:00,70.0,60.0,29.77,WSW,248,0.0,5.0,70,0.01,,,0.04,,2013-09-03 03:23:00,
2013-09-02 21:55:00,69.0,60.0,29.77,WSW,248,0.0,4.0,72,0.00,,,0.04,,2013-09-03 03:55:00,
2013-09-02 22:13:00,69.0,60.0,29.77,WSW,248,0.0,4.0,72,0.00,,,0.04,,2013-09-03 04:13:00,
2013-09-02 22:24:00,69.0,60.0,29.78,WSW,248,2.0,4.0,74,0.00,,,0.04,,2013-09-03 04:24:00,
2013-09-02 22:53:00,69.0,61.0,29.78,WSW,248,0.0,3.0,76,0.00,,,0.04,,2013-09-03 04:53:00,
2013-09-02 23:12:00,68.0,61.0,29.78,WSW,248,0.0,2.0,77,0.00,,,0.04,,2013-09-03 05:12:00,
2013-09-02 23:23:00,68.0,61.0,29.77,WSW,248,0.0,0.0,78,0.00,,,0.04,,2013-09-03 05:23:00,
2013-09-02 23:52:00,68.0,61.0,29.78,WSW,248,6.0,9.0,78,0.00,,,0.04,,2013-09-03 05:52:00,